Weather History for HESH - August, 2013

Change the Weather History Date:

Saturday, August 17, 2013

  Actual Average Record
Temperature  
Mean Temperature 96 °F -  
Max Temperature 105 °F - - ()
Min Temperature 86 °F - - ()
Cooling Degree Days 30    
Growing Degree Days 46 (Base 50)    
Moisture  
Dew Point 53 °F    
Average Humidity 25    
Maximum Humidity 46    
Minimum Humidity 12    
Precipitation  
Precipitation 0.00 in - - ()
Sea Level Pressure  
Sea Level Pressure 29.61 in    
Wind  
Wind Speed 9 mph ()    
Max Wind Speed 16 mph    
Max Gust Speed -    
T = Trace of Precipitation, MM = Missing Value Source: Averaged Metar Reports

Daily Weather History Graph

Daily Weather History Graph

Search for Another Location

Airport or City:

Trip Planner

Search our weather history database for the weather conditions in past years. The results will help you decide how hot, cold, wet, or windy it might be!

Date:

Astronomy

Aug. 17, 2013 Rise Set
Actual Time 5:13 AM EET 6:18 PM EET
Civil Twilight 4:49 AM EET 6:43 PM EET
Nautical Twilight 4:20 AM EET 7:12 PM EET
Astronomical Twilight 3:50 AM EET 7:42 PM EET
Moon 3:06 PM EET (8/17) 1:04 AM EET (8/17)
Length of Visible Light 13h 54m
Length of Day
13h 05m
Waxing Gibbous, 82% of the Moon is Illuminated
Aug 17
Waxing Gibbous
Aug 21
Full
Aug 28
Last Quarter
Sep 5
New
Sep 12
First Quarter

Hourly Weather History & Observations

Time (EET) Temp. Heat Index Dew Point Humidity Pressure Visibility Wind Dir Wind Speed Gust Speed Precip Events Conditions
12:00 AM 87.8 °F 89.4 °F 64.4 °F 46% 29.62 in - North 4.6 mph - N/A   Clear
1:00 AM 89.6 °F 88.1 °F 57.2 °F 33% 29.62 in - North 9.2 mph - N/A   Clear
2:00 AM 87.8 °F 86.5 °F 57.2 °F 35% 29.62 in - North 11.5 mph - N/A   Clear
4:00 AM 86.0 °F 85.4 °F 59.0 °F 40% 29.59 in - North 11.5 mph - N/A   Clear
6:00 AM 86.0 °F 86.1 °F 60.8 °F 43% 29.62 in - North 12.7 mph - N/A   Clear
7:00 AM 91.4 °F 90.7 °F 59.0 °F 34% 29.62 in - North 13.8 mph - N/A   Clear
8:00 AM 93.2 °F 92.6 °F 59.0 °F 32% 29.62 in - North 15.0 mph - N/A   Clear
9:00 AM 96.8 °F 95.8 °F 57.2 °F 27% 29.65 in - North 15.0 mph - N/A   Clear
10:00 AM 98.6 °F 97.6 °F 57.2 °F 25% 29.65 in - North 12.7 mph - N/A   Clear
11:00 AM 100.4 °F 98.8 °F 55.4 °F 22% 29.62 in - North 13.8 mph - N/A   Clear
12:00 PM 102.2 °F 100.4 °F 53.6 °F 20% 29.62 in - North 15.0 mph - N/A   Clear
1:00 PM 104.0 °F - 46.4 °F 14% 29.62 in - North 16.1 mph - N/A   Clear
2:00 PM 105.8 °F - 44.6 °F 13% 29.59 in - North 13.8 mph - N/A   Clear
3:00 PM 100.4 °F - 51.8 °F 20% 29.59 in - North 9.2 mph - N/A   Clear
4:00 PM 105.8 °F - 51.8 °F 17% 29.59 in - SSE 5.8 mph - N/A   Clear
5:00 PM 105.8 °F - 51.8 °F 17% 29.59 in - Variable 2.3 mph - N/A   Clear
6:00 PM 102.2 °F - 41.0 °F 12% 29.59 in - NNE 8.1 mph - N/A   Clear
7:00 PM 96.8 °F - 41.0 °F 15% 29.59 in - North 3.5 mph - N/A   Clear
8:00 PM 93.2 °F - 42.8 °F 17% 29.59 in - North 4.6 mph - N/A   Clear
9:00 PM 93.2 °F - 46.4 °F 20% 29.62 in - North 5.8 mph - N/A   Clear
10:00 PM 95.0 °F - 50.0 °F 22% 29.62 in - North 12.7 mph - N/A   Clear
11:00 PM 93.2 °F - 51.8 °F 24% 29.62 in - North 10.4 mph - N/A   Clear